Simultaneous Nadir Overpasses (SNOs) Predictions

Prediction of SNOs between GOES-16 and AQUA Satellite Orbit:

Table of predicted SNOs for the next 14.0 days since TLE Epoch: 10/8/2018
Index Date Time (GOES-16) GOES-16 Lat,Lon AQUA Lat,Lon Distance(km) Time Diff (sec)
1 10/08/2018 18:44:58 -0.02, -75.00 -0.57, -77.61 296.23 80
2 10/10/2018 18:35:26 -0.03, -75.00 0.02, -74.64 39.90 80
3 10/12/2018 18:23:15 -0.03, -75.00 0.68, -71.69 376.29 80
4 10/13/2018 06:44:29 0.03, -75.01 0.41, -76.85 208.98 80
5 10/15/2018 06:29:38 0.03, -75.02 -0.18, -73.89 128.01 80
6 10/15/2018 18:51:02 -0.03, -75.01 -0.90, -79.08 463.00 80
7 10/17/2018 06:17:27 0.03, -75.03 -0.84, -70.94 465.47 80
8 10/17/2018 18:38:51 -0.03, -75.03 -0.24, -76.13 125.32 80
9 10/19/2018 18:26:39 -0.03, -75.05 0.37, -73.17 213.11 80
10 10/20/2018 06:50:34 0.04, -75.06 0.73, -78.33 371.46 80
11 10/22/2018 06:38:23 0.04, -75.09 0.07, -75.38 32.50 80




NCC Satellite Simultaneous Nadir Overpasses (SNOs) Prediction Service
